Weather History for KLLQ - December, 2012

Change the Weather History Date:

Monday, December 31, 2012

  Actual Average Record
Temperature  
Mean Temperature 43 °F -  
Max Temperature 50 °F 52 °F 77 °F (1984)
Min Temperature 36 °F 32 °F 3 °F (1983)
Degree Days  
Heating Degree Days 22    
Moisture  
Dew Point 40 °F    
Average Humidity 84    
Maximum Humidity 100    
Minimum Humidity 61    
Precipitation  
Precipitation 0.78 in - - ()
Sea Level Pressure  
Sea Level Pressure 30.12 in    
Wind  
Wind Speed 3 mph (SSE)    
Max Wind Speed 10 mph    
Max Gust Speed 17 mph    
Visibility 8 miles    
Events Rain    
Averages and records for this station are not official NWS values.
T = Trace of Precipitation, MM = Missing Value Source: NWS Daily Summary

Daily Weather History Graph

Daily Weather History Graph

Search for Another Location

Airport or City:

Trip Planner

Search our weather history database for the weather conditions in past years. The results will help you decide how hot, cold, wet, or windy it might be!

Date:

Astronomy

Dec. 31, 2012 Rise Set
Actual Time 7:11 AM CST 5:09 PM CST
Civil Twilight 6:43 AM CST 5:36 PM CST
Nautical Twilight 6:12 AM CST 6:07 PM CST
Astronomical Twilight 5:42 AM CST 6:38 PM CST
Moon 8:29 PM CST (12/31) 9:02 AM CST (12/31)
Length of Visible Light 10h 52m
Length of Day
9h 57m
Waning Gibbous, 90% of the Moon is Illuminated
Dec 31
Waning Gibbous
Jan 4
Last Quarter
Jan 11
New
Jan 18
First Quarter
Jan 26
Full

Hourly Weather History & Observations

Time (CST) Temp. Windchill Dew Point Humidity Pressure Visibility Wind Dir Wind Speed Gust Speed Precip Events Conditions
12:53 AM 37.0 °F - 30.9 °F 79% 30.32 in 10.0 mi Calm Calm - N/A   Clear
1:53 AM 36.0 °F - 30.9 °F 82% 30.31 in 10.0 mi Calm Calm - N/A   Clear
2:53 AM 37.0 °F - 30.9 °F 79% 30.31 in 10.0 mi Calm Calm - N/A   Clear
3:53 AM 36.0 °F - 32.0 °F 86% 30.30 in 10.0 mi Calm Calm - N/A   Clear
4:53 AM 37.0 °F - 30.9 °F 79% 30.28 in 10.0 mi Calm Calm - N/A   Overcast
5:53 AM 37.9 °F - 32.0 °F 79% 30.28 in 10.0 mi Calm Calm - N/A   Overcast
6:53 AM 37.9 °F 35.5 °F 32.0 °F 79% 30.28 in 10.0 mi East 3.5 mph - N/A   Overcast
7:53 AM 39.0 °F - 32.0 °F 76% 30.27 in 10.0 mi Calm Calm - N/A   Overcast
8:53 AM 41.0 °F 38.0 °F 30.9 °F 67% 30.26 in 10.0 mi SSE 4.6 mph - N/A   Overcast
9:53 AM 43.0 °F 38.2 °F 32.0 °F 65% 30.22 in 10.0 mi SE 8.1 mph - N/A   Overcast
10:53 AM 46.0 °F 41.9 °F 33.1 °F 61% 30.21 in 10.0 mi South 8.1 mph - N/A   Overcast
11:53 AM 46.9 °F - 35.1 °F 63% 30.16 in 10.0 mi SE 5.8 mph - N/A   Unknown
12:53 PM 48.0 °F - 37.9 °F 68% 30.12 in 10.0 mi SE 5.8 mph - N/A   Overcast
1:53 PM 48.9 °F - 39.0 °F 69% 30.09 in 10.0 mi ESE 3.5 mph - N/A   Overcast
2:53 PM 50.0 °F - 39.9 °F 68% 30.06 in 10.0 mi SE 6.9 mph - N/A   Overcast
3:53 PM 48.0 °F - 44.1 °F 86% 30.05 in 5.0 mi SE 5.8 mph - 0.02 in Rain Rain
4:53 PM 48.0 °F - 45.0 °F 89% 30.02 in 3.0 mi SE 10.4 mph - 0.07 in Rain Rain
5:53 PM 48.9 °F - 46.0 °F 90% 29.99 in 10.0 mi SSE 9.2 mph 17.3 mph 0.01 in Rain Light Rain
6:53 PM 50.0 °F - 48.0 °F 93% 29.99 in 9.0 mi South 4.6 mph - 0.01 in Rain Light Rain
7:07 PM 50.0 °F - 48.2 °F 94% 30.04 in 5.0 mi WNW 8.1 mph - 0.02 in Rain Rain
7:14 PM 50.0 °F - 48.2 °F 94% 30.03 in 4.0 mi WNW 8.1 mph - 0.04 in Rain Rain
7:18 PM 50.0 °F - 48.2 °F 94% 30.04 in 4.0 mi WNW 6.9 mph - 0.05 in Rain Rain
7:44 PM 50.0 °F - 48.2 °F 94% 30.03 in 4.0 mi NW 6.9 mph - 0.13 in Rain Rain
7:53 PM 50.0 °F - 48.0 °F 93% 30.03 in 6.0 mi NW 3.5 mph - 0.14 in Rain Light Rain
8:07 PM 50.0 °F - 48.2 °F 94% 30.03 in 3.0 mi WNW 5.8 mph - 0.05 in Rain Heavy Rain
8:36 PM 50.0 °F - 48.2 °F 94% 30.03 in 4.0 mi Variable 4.6 mph - 0.11 in Rain Rain
8:53 PM 50.0 °F - 48.0 °F 93% 30.01 in 8.0 mi Variable 3.5 mph - 0.12 in Rain Light Rain
9:04 PM 48.2 °F - 48.2 °F 100% 30.02 in 9.0 mi Variable 3.5 mph - 0.01 in Rain Light Rain
9:53 PM 48.0 °F - 46.0 °F 93% 30.04 in 5.0 mi Variable 3.5 mph - 0.12 in Rain Rain
10:53 PM 46.0 °F 44.8 °F 44.1 °F 93% 30.03 in 5.0 mi ESE 3.5 mph - 0.14 in Rain Rain
11:46 PM 46.4 °F - 44.6 °F 93% 30.02 in 7.0 mi Calm Calm - 0.14 in Rain Rain
11:53 PM 46.0 °F - 44.1 °F 93% 30.02 in 6.0 mi Calm Calm - 0.15 in Rain Rain